Voltar ao catálogo

STARLINK-5760

AtivoComunicaçõesVLEO
NORAD 55591·PAYLOAD·🇺🇸 United States

Lançado Feb 12, 2023 de Cape Canaveral Space Force Station

Loading…

Próximas Passagens (próximas 24 horas)

TLE

AtualizadoSource: CelesTrak SupGP

Época: Sep 15, 2026, 02:08 UTC

1 55591C 23020Y   26258.08937500 -.00021063  00000+0 -76281-3 0  2585
2 55591  43.0046  15.6880 0002258 276.4870 229.0519 15.27590470    12

Acompanhe STARLINK-5760 em tempo real com AllMySat

Download on the App Store